Regional Weather Roundup
Issued by NWS

Home | Current Version | Previous Version | Text Only | Print | Product List | Glossary On
Versions: 1 2 3 4 5 6 7 8 9 10 11 12 13 14 15 16 17 18 19 20 21 22 23 24 25 26 27 28 29 30 31 32 33 34 35 36 37 38 39 40 41 42 43 44 45 46 47 48 49 50
000
ASUS45 KBOU 061207
RWRCO

WEATHER ROUNDUP FOR COLORADO
NATIONAL WEATHER SERVICE DENVER/BOULDER CO
500 AM MST SAT FEB 06 2016

NOTE: "FAIR" INDICATES FEW OR NO CLOUDS BELOW 12000 FEET WITH NO
SIGNIFICANT WEATHER AND/OR OBSTRUCTIONS TO VISIBILITY.

COZ001>005-013-030-031-061300-
...NORTHWEST COLORADO...

CITY           SKY/WX    TMP DP  RH WIND       PRES   REMARKS
CRAIG          CLOUDY   -13 -18  78 CALM      30.49R
HAYDEN         CLOUDY     7   0  72 SE10      30.46R WCI  -8
MEEKER         CLOUDY    -3  -8  79 CALM      30.48S
MOUNT WERNER   NOT AVBL
STEAMBOAT SPGS CLOUDY     5   3  91 CALM      30.46S
WALDEN         CLOUDY     3  -2  78 SE9       30.39S WCI -11
$$

COZ006>008-011-061300-
...WEST CENTRAL VALLEYS...

CITY           SKY/WX    TMP DP  RH WIND       PRES   REMARKS
GRAND JUNCTION CLOUDY     3   1  91 CALM      30.59R FOG
MONTROSE       CLOUDY     3  -2  79 SE9       30.56S WCI -12
EAGLE          CLOUDY     0  -2  92 CALM      30.58F VSB 1
RIFLE          CLOUDY     1  -4  79 S3        30.57S
DELTA          CLOUDY    10   7  85 N3        30.58S
NUCLA          CLOUDY    10   3  72 CALM      30.55R
$$

COZ017>023-064>068-061300-
...SOUTHWEST COLORADO...

CITY           SKY/WX    TMP DP  RH WIND       PRES   REMARKS
DURANGO        CLOUDY     4   0  83 N7        30.45R WCI  -8
CORTEZ         CLOUDY     7   1  76 E8        30.49R WCI  -6
PAGOSA SPRINGS CLOUDY   N/A N/A N/A CALM      30.43R
TELLURIDE      CLOUDY    13   6  72 SE7       30.44R WCI   3
WOLF CREEK PAS CLOUDY    18   0  45 W8        30.39R WCI   7
$$

COZ009-010-012-014-032>034-037-058>063-061300-
...CENTRAL COLORADO...

CITY           SKY/WX    TMP DP  RH WIND       PRES   REMARKS
ASPEN          CLOUDY     0  -4  83 S7        30.45S WCI -13
BUENA VISTA    CLOUDY     3  -4  70 CALM      30.36R
COPPER MTN     LGT SNOW  12   5  73 W13       30.34R WCI  -3
BERTHOUD PASS  CLOUDY     3  -8  60 N18G33    30.28R WCI -17
COTTONWOOD PAS CLOUDY    23   9  54 NW8G20    30.30R WCI  14
GUNNISON       CLOUDY   -18 N/A N/A CALM      30.56R
KREMMLING      CLOUDY   N/A N/A N/A CALM      30.52S
LEADVILLE      CLOUDY     3  -2  79 N10       30.36R WCI -12
MONARCH PASS     N/A      3   0  85 MISG      30.38R
SALIDA         NOT AVBL
SUNLIGHT       CLOUDY    14  10  85 CALM        N/A
WILKERSON PASS CLOUDY    19   3  49 N14G24    30.28R WCI   6
$$

COZ069>075-061300-
...SAN LUIS VALLEY/SANGRE DE CRISTO MOUNTAINS...

CITY           SKY/WX    TMP DP  RH WIND       PRES   REMARKS
ALAMOSA          N/A     -7 -12  79 W7        30.42  WCI -21
LA VETA PASS   CLOUDY     9   0  66 MISG      30.26R
SAGUACHE       CLOUDY    10   0  61 N12       30.41S WCI  -4
$$

COZ035-036-038>040-061300-
...NORTHERN COLORADO FRONT RANGE...

CITY           SKY/WX    TMP DP  RH WIND       PRES   REMARKS
DENVER INTL AP CLOUDY    23   6  48 SW15      30.20S WCI  10
DMNS CITY PARK   N/A     24   6  44 SE9       30.21S WCI  15
AURORA         CLEAR     20   5  52 S8        30.21S WCI  10
FRONT RANGE AP NOT AVBL
ERIE MUNI ARPT CLOUDY     9   6  87 SW5       30.21F WCI   0
BOULDER MUN AP CLOUDY    19  10  68 CALM      30.20S
CENTENNIAL     CLOUDY    22   5  48 S9        30.20F WCI  12
BROOMFIELD     CLOUDY    27   9  46 W5        30.20F WCI  21
FORT COLLINS   CLOUDY    10   7  85 CALM      30.21S
LONGMONT       CLOUDY    11   4  74 W3        30.23F
$$

COZ041-046-047-076>085-087-088-061300-
...PIKES PEAK/PALMER DIVIDE AND SOUTHERN FOOTHILLS...

CITY           SKY/WX    TMP DP  RH WIND       PRES   REMARKS
COLO. SPRINGS  CLOUDY    19   2  47 N7        30.24S WCI  10
A. F. ACADEMY  CLEAR      8  -2  64 N8        30.23S WCI  -5
SCHRIEVER AFB  FAIR      27   0  31 W8        30.24S WCI  18
ELLICOTT       NOT AVBL
FALCON         CLOUDY    18  -1  43 W9        30.23R WCI   6
FORT CARSON    CLOUDY    17   5  59 NW15      30.22S WCI   2
LIMON          CLOUDY    -3  -7  82 NW6       30.23F WCI -15
MONUMENT HILL  CLOUDY    14   0  52 SW9       30.23R WCI   2
TRINIDAD       CLOUDY    18   7  62 SW13      30.26F WCI   5
$$

COZ042>045-048>051-090-091-061300-
...NORTHEAST COLORADO...

CITY           SKY/WX    TMP DP  RH WIND       PRES   REMARKS
GREELEY ARPT   CLOUDY     1  -2  85 W5        30.23F WCI  -8
AKRON          CLOUDY    19   5  54 SW8       30.20F WCI   9
BURLINGTON     CLOUDY    18   8  65 W13       30.24F WCI   5
WRAY           CLOUDY    12   6  76 W9        30.24S WCI  -1
STERLING       CLOUDY     5   1  85 S6        30.23S WCI  -6
HOLYOKE        CLOUDY    19  12  73 W13       30.21F WCI   7
FORT MORGAN    CLOUDY     6   3  86 W12       30.23S WCI -10
$$

COZ086-089-092>099-061300-
...SOUTHEAST COLORADO...

CITY           SKY/WX    TMP DP  RH WIND       PRES   REMARKS
PUEBLO         CLOUDY    13   7  77 SW3       30.27F
LA JUNTA       CLOUDY    11   8  88 W9        30.30S WCI  -2
LAMAR          CLOUDY    13  10  88 SW7       30.30S WCI   3
SPRINGFIELD      N/A     16  11  80 W3        30.28F
$$



USA.gov is the U.S. government's official web portal to all federal, state and local government web resources and services.